• In Hungary
  • List of Countries
  • For 7 days
  • Water Temperature
  • Satellite Maps
  • Weather Map
  • News
  • Weather Widgets
  • user-avatar
    Login

    Hourly Weather Habarovsk

    Today, 24 September, Monday

    Time Temperature Precipitation Wind Pressure Humidity
    00:00 +8°C° 0 mm 2 mps 747 mmHg 94%
    01:00 +8°C° 0 mm 2 mps 747 mmHg 94%
    02:00 +8°C° 0 mm 2 mps 747 mmHg 95%
    03:00 +7°C° 0 mm 2 mps 747 mmHg 95%
    04:00 +7°C° 0 mm 2 mps 747 mmHg 95%
    05:00 +7°C° 0 mm 2 mps 747 mmHg 95%
    06:00 +8°C° 0 mm 1 mps 746 mmHg 96%
    07:00 +8°C° 0 mm 2 mps 746 mmHg 92%
    08:00 +9°C° 0 mm 2 mps 746 mmHg 88%
    09:00 +10°C° 0 mm 2 mps 746 mmHg 84%
    10:00 +12°C° 0.1 mm 2 mps 745 mmHg 82%
    11:00 +13°C° 0.1 mm 2 mps 745 mmHg 80%
    12:00 +14°C° 0.1 mm 2 mps 745 mmHg 77%
    13:00 +14°C° 0.2 mm 2 mps 745 mmHg 77%
    14:00 +14°C° 0.2 mm 1 mps 745 mmHg 76%
    15:00 +14°C° 0.2 mm 1 mps 744 mmHg 76%
    16:00 +13°C° 0.2 mm 1 mps 745 mmHg 79%
    17:00 +12°C° 0.2 mm 1 mps 745 mmHg 82%
    18:00 +11°C° 0.2 mm 1 mps 745 mmHg 86%
    19:00 +11°C° 0 mm 1 mps 745 mmHg 87%
    20:00 +9°C° 0 mm 2 mps 745 mmHg 89%
    21:00 +9°C° 0 mm 2 mps 746 mmHg 90%
    22:00 +8°C° 0 mm 2 mps 746 mmHg 91%
    23:00 +8°C° 0 mm 2 mps 746 mmHg 91%

    Tomorrow, 25 September, Tuesday

    Time Temperature Precipitation Wind Pressure Humidity
    00:00 +8°C° 0 mm 1 mps 747 mmHg 92%
    01:00 +8°C° 0 mm 1 mps 747 mmHg 93%
    02:00 +8°C° 0 mm 1 mps 747 mmHg 93%
    03:00 +7°C° 0 mm 1 mps 747 mmHg 94%
    04:00 +7°C° 0 mm 1 mps 747 mmHg 94%
    05:00 +7°C° 0 mm 1 mps 748 mmHg 95%
    06:00 +7°C° 0 mm 1 mps 748 mmHg 95%
    07:00 +8°C° 0.1 mm 1 mps 748 mmHg 93%
    08:00 +9°C° 0.1 mm 1 mps 748 mmHg 90%
    09:00 +10°C° 0.1 mm 1 mps 749 mmHg 87%
    10:00 +10°C° 0.2 mm 2 mps 749 mmHg 85%
    11:00 +12°C° 0.2 mm 2 mps 749 mmHg 82%
    12:00 +12°C° 0.2 mm 2 mps 749 mmHg 80%
    13:00 +13°C° 0.5 mm 2 mps 749 mmHg 77%
    14:00 +13°C° 0.5 mm 2 mps 749 mmHg 74%
    15:00 +14°C° 0.5 mm 2 mps 749 mmHg 72%
    16:00 +13°C° 0.4 mm 2 mps 749 mmHg 76%
    17:00 +12°C° 0.4 mm 2 mps 749 mmHg 81%
    18:00 +10°C° 0.4 mm 1 mps 750 mmHg 86%
    19:00 +9°C° 0 mm 2 mps 750 mmHg 88%
    20:00 +8°C° 0 mm 2 mps 751 mmHg 90%
    21:00 +7°C° 0 mm 2 mps 751 mmHg 92%
    22:00 +7°C° 0 mm 2 mps 751 mmHg 92%
    23:00 +7°C° 0 mm 1 mps 751 mmHg 93%

    Day after tomorrow, 26 September, Wednesday

    Time Temperature Precipitation Wind Pressure Humidity
    00:00 +7°C° 0 mm 1 mps 752 mmHg 93%
    01:00 +7°C° 0 mm 1 mps 752 mmHg 93%
    02:00 +6°C° 0 mm 1 mps 752 mmHg 93%
    03:00 +6°C° 0 mm 1 mps 752 mmHg 93%
    04:00 +6°C° 0 mm 1 mps 752 mmHg 93%
    05:00 +6°C° 0 mm 1 mps 753 mmHg 94%
    06:00 +5°C° 0 mm 1 mps 753 mmHg 94%
    07:00 +7°C° 0 mm 1 mps 753 mmHg 89%
    08:00 +9°C° 0 mm 1 mps 753 mmHg 83%
    09:00 +11°C° 0 mm 1 mps 754 mmHg 78%
    10:00 +12°C° 0 mm 1 mps 754 mmHg 73%
    11:00 +14°C° 0 mm 1 mps 753 mmHg 67%
    12:00 +15°C° 0 mm 1 mps 753 mmHg 61%
    13:00 +15°C° 0 mm 2 mps 753 mmHg 59%
    14:00 +16°C° 0 mm 2 mps 753 mmHg 57%
    15:00 +16°C° 0 mm 2 mps 753 mmHg 56%
    16:00 +15°C° 0 mm 2 mps 753 mmHg 62%
    17:00 +13°C° 0 mm 1 mps 753 mmHg 69%
    18:00 +11°C° 0 mm 1 mps 753 mmHg 75%
    19:00 +11°C° 0 mm 1 mps 754 mmHg 77%
    20:00 +10°C° 0 mm 1 mps 754 mmHg 79%
    21:00 +9°C° 0 mm 2 mps 755 mmHg 81%
    22:00 +8°C° 0 mm 2 mps 755 mmHg 83%
    23:00 +8°C° 0 mm 2 mps 755 mmHg 84%

    27 September, Thursday

    Time Temperature Precipitation Wind Pressure Humidity
    00:00 +7°C° 0 mm 2 mps 755 mmHg 86%
    01:00 +7°C° 0 mm 2 mps 755 mmHg 87%
    02:00 +7°C° 0 mm 2 mps 755 mmHg 88%
    03:00 +7°C° 0 mm 2 mps 755 mmHg 89%
    04:00 +6°C° 0 mm 2 mps 755 mmHg 90%
    05:00 +6°C° 0 mm 2 mps 756 mmHg 90%
    06:00 +6°C° 0 mm 2 mps 756 mmHg 91%
    07:00 +8°C° 0 mm 2 mps 756 mmHg 85%
    08:00 +10°C° 0 mm 2 mps 756 mmHg 80%
    09:00 +13°C° 0 mm 2 mps 756 mmHg 75%
    10:00 +14°C° 0 mm 2 mps 756 mmHg 70%
    11:00 +15°C° 0 mm 2 mps 755 mmHg 65%
    12:00 +17°C° 0 mm 3 mps 755 mmHg 60%
    13:00 +17°C° 0 mm 2 mps 755 mmHg 59%
    14:00 +17°C° 0 mm 2 mps 754 mmHg 59%
    15:00 +18°C° 0 mm 2 mps 754 mmHg 58%
    16:00 +16°C° 0 mm 2 mps 754 mmHg 64%
    17:00 +14°C° 0 mm 1 mps 754 mmHg 71%
    18:00 +13°C° 0 mm 1 mps 754 mmHg 77%
    19:00 +12°C° 0 mm 1 mps 755 mmHg 79%
    20:00 +11°C° 0 mm 1 mps 755 mmHg 81%
    21:00 +11°C° 0 mm 1 mps 755 mmHg 82%
    22:00 +10°C° 0 mm 1 mps 755 mmHg 84%
    23:00 +10°C° 0 mm 1 mps 755 mmHg 86%

    28 September, Friday

    Time Temperature Precipitation Wind Pressure Humidity
    00:00 +10°C° 0 mm 1 mps 755 mmHg 87%
    01:00 +9°C° 0 mm 1 mps 755 mmHg 88%
    02:00 +9°C° 0 mm 1 mps 755 mmHg 89%
    03:00 +9°C° 0 mm 1 mps 755 mmHg 90%
    04:00 +9°C° 0 mm 1 mps 755 mmHg 90%
    05:00 +8°C° 0 mm 1 mps 755 mmHg 91%
    06:00 +7°C° 0 mm 2 mps 755 mmHg 92%
    07:00 +9°C° 0 mm 2 mps 755 mmHg 86%
    08:00 +12°C° 0 mm 2 mps 755 mmHg 81%
    09:00 +14°C° 0 mm 2 mps 755 mmHg 76%
    10:00 +15°C° 0 mm 2 mps 755 mmHg 71%
    11:00 +17°C° 0 mm 3 mps 754 mmHg 66%
    12:00 +18°C° 0 mm 3 mps 754 mmHg 62%
    13:00 +18°C° 0 mm 3 mps 753 mmHg 60%
    14:00 +19°C° 0 mm 3 mps 753 mmHg 59%
    15:00 +19°C° 0 mm 3 mps 753 mmHg 58%
    16:00 +17°C° 0 mm 3 mps 753 mmHg 65%
    17:00 +16°C° 0 mm 3 mps 753 mmHg 71%
    18:00 +14°C° 0 mm 2 mps 753 mmHg 78%
    19:00 +13°C° 0 mm 2 mps 753 mmHg 80%
    20:00 +12°C° 0 mm 3 mps 753 mmHg 83%
    21:00 +11°C° 0 mm 3 mps 753 mmHg 85%
    22:00 +11°C° 0 mm 3 mps 753 mmHg 86%
    23:00 +10°C° 0 mm 3 mps 753 mmHg 86%

    29 September, Saturday

    Time Temperature Precipitation Wind Pressure Humidity
    00:00 +10°C° 0 mm 3 mps 753 mmHg 87%
    01:00 +10°C° 0 mm 3 mps 753 mmHg 87%
    02:00 +10°C° 0 mm 3 mps 752 mmHg 87%
    03:00 +9°C° 0 mm 3 mps 752 mmHg 87%
    04:00 +9°C° 0 mm 3 mps 752 mmHg 87%
    05:00 +8°C° 0 mm 4 mps 752 mmHg 88%
    06:00 +8°C° 0 mm 4 mps 752 mmHg 88%
    07:00 +10°C° 0 mm 4 mps 752 mmHg 83%
    08:00 +12°C° 0 mm 4 mps 751 mmHg 78%
    09:00 +14°C° 0 mm 5 mps 751 mmHg 72%
    10:00 +15°C° 0 mm 5 mps 751 mmHg 68%
    11:00 +17°C° 0 mm 5 mps 750 mmHg 63%
    12:00 +19°C° 0 mm 6 mps 749 mmHg 58%
    13:00 +19°C° 0 mm 6 mps 749 mmHg 57%
    14:00 +20°C° 0 mm 6 mps 748 mmHg 57%
    15:00 +20°C° 0 mm 6 mps 747 mmHg 56%
    16:00 +17°C° 0 mm 5 mps 747 mmHg 61%
    17:00 +16°C° 0 mm 5 mps 747 mmHg 67%
    18:00 +15°C° 0 mm 4 mps 746 mmHg 72%
    19:00 +14°C° 0 mm 4 mps 746 mmHg 74%
    20:00 +13°C° 0 mm 4 mps 746 mmHg 76%
    21:00 +13°C° 0 mm 4 mps 746 mmHg 79%
    22:00 +12°C° 0 mm 4 mps 746 mmHg 81%
    23:00 +12°C° 0 mm 4 mps 745 mmHg 82%
    Show more

    3.3.7123123